CW2303 Weather Reports


Display with metric or nautical units.
time (UTC)temp
F
wind
direction
speed
MPH
gust
MPH
rain 1hr
in
rain 24hr
in
rain mn
in
humidity
%
barometer
mb
20260506062044 42 327 0.0 3.0 0.01 0.18 0.01 93 1014.1
20260506061553 42 0 0.0 3.0 0.01 0.18 0.01 93 1013.9
20260506061046 42 0 1.0 3.0 0.01 0.18 0.01 93 1013.8
20260506060542 42 17 0.0 3.0 0.01 0.18 0.01 93 1013.6
20260506051043 42 339 1.0 5.0 0.00 0.17 0.00 93 1013.2
20260506050542 42 30 0.0 5.0 0.00 0.17 0.00 93 1012.9
20260506050110 42 24 0.0 5.0 0.00 0.17 0.00 93 1013.0
20260506045042 42 42 2.0 6.0 0.00 0.17 0.17 93 1012.7
20260506044600 42 40 0.0 9.0 0.00 0.17 0.17 93 1012.4
20260506044042 42 32 0.0 9.0 0.00 0.17 0.17 93 1012.1
20260506043542 42 0 2.0 9.0 0.00 0.17 0.17 93 1012.3
20260506043053 42 344 0.0 4.0 0.00 0.17 0.17 93 1012.4
20260506042543 42 328 0.0 5.0 0.00 0.17 0.17 93 1012.4
20260506042042 42 41 0.0 5.0 0.00 0.17 0.17 93 1012.4
20260506041556 42 328 0.0 5.0 0.00 0.17 0.17 93 1012.4
20260506041045 42 0 0.0 5.0 0.00 0.17 0.17 93 1012.6
20260506040542 42 39 0.0 9.0 0.00 0.17 0.17 93 1012.7
20260506040101 42 22 0.0 9.0 0.00 0.17 0.17 93 1012.9
20260506035544 42 9 1.0 10.0 0.00 0.17 0.17 93 1013.1
20260506035043 42 13 0.0 15.0 0.00 0.17 0.17 93 1012.8
20260506034553 42 48 3.0 15.0 0.00 0.17 0.17 93 1012.7
20260506034042 43 317 5.0 15.0 0.00 0.17 0.17 94 1012.6
20260506033543 43 344 3.0 11.0 0.00 0.17 0.17 95 1012.5
20260506033053 43 349 4.0 11.0 0.00 0.17 0.17 95 1012.4
20260506032543 43 46 4.0 11.0 0.00 0.17 0.17 95 1012.4
20260506032043 43 309 3.0 11.0 0.00 0.17 0.17 95 1012.5
20260506031559 43 340 4.0 9.0 0.00 0.17 0.17 94 1012.3
20260506031043 43 332 4.0 12.0 0.00 0.17 0.17 94 1012.1
20260506030542 43 323 2.0 12.0 0.00 0.17 0.17 94 1012.2
20260506030112 43 0 2.0 9.0 0.00 0.17 0.17 94 1011.8
20260506025542 43 46 4.0 9.0 0.00 0.17 0.17 94 1011.7
20260506025042 43 17 4.0 9.0 0.00 0.17 0.17 94 1011.8
20260506024553 43 66 2.0 9.0 0.00 0.17 0.17 94 1011.8
20260506024043 43 348 2.0 9.0 0.00 0.17 0.17 94 1011.8
20260506023543 43 19 4.0 9.0 0.00 0.17 0.17 94 1011.8
20260506023054 43 31 2.0 8.0 0.00 0.17 0.17 94 1011.8
20260506022545 43 318 2.0 8.0 0.00 0.17 0.17 94 1011.8
20260506022042 43 16 2.0 8.0 0.00 0.17 0.17 94 1011.8
20260506021558 43 326 2.0 11.0 0.00 0.17 0.17 94 1011.6
20260506021042 43 82 3.0 11.0 0.01 0.17 0.17 94 1011.6
20260506020541 43 343 4.0 11.0 0.01 0.17 0.17 94 1011.6
20260506020052 43 313 3.0 9.0 0.02 0.17 0.17 94 1011.4
20260506015543 43 0 2.0 9.0 0.02 0.17 0.17 94 1011.2
20260506015043 43 311 2.0 9.0 0.02 0.17 0.17 94 1011.0
20260506014559 43 31 2.0 10.0 0.02 0.17 0.17 94 1011.0
20260506014044 43 325 1.0 10.0 0.02 0.17 0.17 94 1011.1
20260506013542 43 46 2.0 10.0 0.02 0.17 0.17 94 1010.9
20260506013053 43 329 3.0 9.0 0.03 0.17 0.17 94 1011.2
20260506012543 43 26 3.0 9.0 0.03 0.17 0.17 94 1011.1
20260506012042 43 333 3.0 9.0 0.03 0.17 0.17 94 1010.9
20260506011557 43 19 1.0 5.0 0.03 0.17 0.17 94 1010.9
20260506011042 43 325 0.0 10.0 0.02 0.16 0.16 94 1011.1
20260506010543 43 37 4.0 10.0 0.03 0.16 0.16 94 1011.0
20260506010054 43 21 4.0 9.0 0.02 0.15 0.15 94 1010.8
20260506005545 43 27 3.0 8.0 0.02 0.15 0.15 94 1011.0
20260506005042 43 34 2.0 8.0 0.02 0.15 0.15 94 1010.7
20260506004621 43 22 1.0 9.0 0.02 0.15 0.15 94 1010.6
20260506004042 43 24 2.0 9.0 0.02 0.15 0.15 94 1010.5
20260506003543 43 28 3.0 9.0 0.01 0.14 0.14 94 1010.2
20260506003057 43 22 3.0 7.0 0.02 0.14 0.14 94 1010.3
20260506002542 43 10 2.0 7.0 0.02 0.14 0.14 94 1010.3
20260506002045 43 0 0.0 10.0 0.03 0.14 0.14 94 1009.9
20260506001556 43 39 2.0 10.0 0.06 0.14 0.14 94 1010.3
20260506001043 43 300 3.0 9.0 0.09 0.14 0.14 93 1010.2
20260506000542 43 343 2.0 10.0 0.08 0.13 0.13 93 1009.8
20260506000054 43 21 3.0 12.0 0.08 0.13 0.13 93 1010.0
20260505235542 43 82 6.0 12.0 0.08 0.13 0.13 93 1010.1
20260505235042 43 24 4.0 9.0 0.08 0.13 0.13 93 1010.1
20260505234612 43 26 2.0 9.0 0.08 0.13 0.13 93 1010.1
20260505234044 44 24 3.0 9.0 0.08 0.13 0.13 93 1010.0
20260505233542 44 49 2.0 12.0 0.08 0.13 0.13 93 1009.7
20260505233053 44 342 2.0 12.0 0.07 0.12 0.12 93 1009.8
20260505232542 44 21 4.0 12.0 0.07 0.12 0.12 93 1010.0
20260505232046 44 348 4.0 10.0 0.06 0.11 0.11 93 1009.7
20260505231553 44 327 2.0 13.0 0.03 0.08 0.08 93 1010.0
20260505231044 44 344 3.0 13.0 0.00 0.05 0.05 93 1009.8
20260505230543 44 48 4.0 10.0 0.00 0.05 0.05 93 1009.8
20260505230054 44 21 3.0 15.0 0.00 0.05 0.05 93 1009.9
20260505225543 44 28 3.0 15.0 0.01 0.05 0.05 93 1009.9
20260505225043 44 313 7.0 15.0 0.01 0.05 0.05 92 1009.7
20260505224551 44 331 3.0 13.0 0.01 0.05 0.05 92 1009.9
20260505224043 44 24 6.0 13.0 0.01 0.05 0.05 92 1009.8
20260505223542 44 30 5.0 13.0 0.01 0.05 0.05 92 1009.9
20260505223102 44 17 7.0 13.0 0.01 0.05 0.05 92 1009.7
20260505222543 45 334 5.0 13.0 0.01 0.05 0.05 92 1009.8
20260505222042 45 327 7.0 13.0 0.01 0.05 0.05 92 1009.4
20260505221607 45 343 5.0 13.0 0.01 0.05 0.05 92 1009.6
20260505221042 45 309 5.0 13.0 0.01 0.05 0.05 91 1009.6
20260505220544 46 336 3.0 9.0 0.01 0.05 0.05 92 1009.5
20260505220135 46 17 1.0 7.0 0.02 0.05 0.05 92 1009.2
20260505215543 46 49 1.0 6.0 0.03 0.04 0.04 92 1009.6
20260505215043 46 38 2.0 6.0 0.03 0.04 0.04 91 1009.6
20260505214604 46 316 2.0 6.0 0.03 0.04 0.04 91 1009.6
20260505214043 46 9 0.0 7.0 0.03 0.04 0.04 90 1009.4
20260505213541 46 55 2.0 13.0 0.03 0.04 0.04 90 1009.3
20260505213053 46 30 3.0 13.0 0.03 0.04 0.04 89 1009.4
20260505212543 46 20 3.0 12.0 0.03 0.04 0.04 89 1009.3
20260505212043 46 333 1.0 12.0 0.03 0.04 0.04 89 1009.3
20260505211614 46 29 5.0 10.0 0.03 0.04 0.04 88 1009.2
20260505211043 46 27 2.0 10.0 0.03 0.04 0.04 88 1009.1
20260505210545 47 43 3.0 13.0 0.03 0.04 0.04 87 1009.1
20260505210056 47 27 4.0 14.0 0.02 0.03 0.03 85 1009.5
20260505205542 47 346 7.0 14.0 0.00 0.01 0.01 85 1009.9
20260505205044 47 39 5.0 17.0 0.00 0.01 0.01 85 1009.6
20260505204553 47 343 7.0 17.0 0.00 0.01 0.01 85 1009.4
20260505204042 47 331 7.0 17.0 0.00 0.01 0.01 85 1009.4
20260505203543 47 17 5.0 20.0 0.00 0.01 0.01 84 1009.3
20260505203055 47 31 5.0 20.0 0.00 0.01 0.01 85 1009.1
20260505202544 47 23 5.0 11.0 0.00 0.01 0.01 85 1008.9
20260505202043 48 71 3.0 14.0 0.00 0.01 0.01 85 1008.8
20260505201606 48 33 7.0 14.0 0.00 0.01 0.01 85 1008.8
20260505201042 48 31 2.0 13.0 0.00 0.01 0.01 85 1008.9
20260505200542 48 322 3.0 14.0 0.00 0.01 0.01 86 1009.0
20260505195544 49 323 4.0 12.0 0.00 0.01 0.01 83 1009.3
20260505195107 49 24 2.0 9.0 0.00 0.01 0.01 83 1009.8
20260505194607 49 45 3.0 15.0 0.00 0.01 0.01 82 1009.8
20260505194043 49 13 4.0 15.0 0.00 0.01 0.01 82 1009.6
20260505193543 49 17 5.0 15.0 0.00 0.01 0.01 82 1009.3
20260505193054 49 45 4.0 17.0 0.00 0.01 0.01 83 1009.2
20260505192542 49 31 7.0 17.0 0.00 0.01 0.01 83 1009.1
20260505192042 49 78 4.0 15.0 0.00 0.01 0.01 85 1008.9
20260505191556 49 55 5.0 16.0 0.00 0.01 0.01 84 1008.8
20260505191043 50 12 3.0 16.0 0.00 0.01 0.01 85 1008.9
20260505190543 50 35 5.0 14.0 0.00 0.01 0.01 84 1009.0
20260505185543 51 345 3.0 16.0 0.00 0.01 0.01 84 1009.1
20260505185043 51 346 6.0 16.0 0.00 0.01 0.01 83 1009.0
20260505184555 51 57 5.0 13.0 0.00 0.01 0.01 83 1008.9
20260505184043 51 352 6.0 15.0 0.00 0.01 0.01 82 1008.8
20260505183542 51 47 6.0 20.0 0.00 0.01 0.01 82 1008.8
20260505183056 51 342 4.0 20.0 0.00 0.01 0.01 82 1008.9
20260505182542 51 39 5.0 20.0 0.00 0.01 0.01 82 1009.0
20260505182042 51 314 5.0 16.0 0.00 0.01 0.01 83 1008.9
20260505181555 51 19 5.0 11.0 0.00 0.01 0.01 83 1009.1
20260505181048 51 65 4.0 13.0 0.00 0.01 0.01 83 1009.3
20260505180545 51 19 6.0 13.0 0.00 0.01 0.01 83 1009.2
20260505175543 51 45 3.0 11.0 0.00 0.01 0.01 83 1009.3
20260505175043 51 51 4.0 13.0 0.00 0.01 0.01 83 1009.2
20260505174600 52 26 6.0 13.0 0.00 0.01 0.01 83 1009.3
20260505174043 52 336 3.0 11.0 0.00 0.01 0.01 83 1009.2
20260505173545 52 334 4.0 13.0 0.00 0.01 0.01 83 1009.2
20260505173059 52 46 5.0 13.0 0.00 0.01 0.01 82 1009.1
20260505172542 52 15 1.0 11.0 0.00 0.01 0.01 82 1009.0
20260505172042 52 348 2.0 11.0 0.00 0.01 0.01 82 1009.0
20260505171556 52 337 5.0 12.0 0.00 0.01 0.01 82 1009.0
20260505171043 52 22 6.0 15.0 0.00 0.01 0.01 82 1008.9
20260505170542 52 17 4.0 15.0 0.00 0.01 0.01 82 1008.8
20260505170055 52 317 5.0 15.0 0.00 0.01 0.01 82 1008.7
20260505165542 53 10 4.0 13.0 0.00 0.01 0.01 82 1008.6
20260505165046 53 69 3.0 11.0 0.00 0.01 0.01 82 1008.7
20260505164623 53 85 2.0 13.0 0.00 0.01 0.01 82 1008.8
20260505164042 52 333 4.0 13.0 0.00 0.01 0.01 83 1008.8
20260505163541 53 37 3.0 10.0 0.00 0.01 0.01 83 1009.0
20260505163053 52 64 2.0 7.0 0.00 0.01 0.01 84 1009.0
20260505162542 52 342 1.0 9.0 0.00 0.01 0.01 84 1009.0
20260505162043 52 0 2.0 11.0 0.00 0.01 0.01 85 1009.1
20260505161557 52 40 3.0 14.0 0.00 0.01 0.01 85 1009.6
20260505161043 52 326 5.0 15.0 0.00 0.01 0.01 84 1009.8
20260505160543 52 5 6.0 15.0 0.00 0.01 0.01 84 1009.8
20260505160108 52 342 8.0 15.0 0.00 0.01 0.01 83 1009.8
20260505153057 56 75 2.0 10.0 0.00 0.01 0.01 78 1008.0
20260505152542 56 344 2.0 10.0 0.00 0.01 0.01 79 1007.9
20260505152042 56 53 2.0 6.0 0.00 0.01 0.01 79 1007.6
20260505151556 56 32 1.0 8.0 0.00 0.01 0.01 79 1007.7
20260505151044 55 38 0.0 9.0 0.00 0.01 0.01 79 1007.7
20260505150542 55 42 2.0 9.0 0.00 0.01 0.01 79 1007.8
20260505140542 55 20 1.0 9.0 0.00 0.01 0.01 81 1008.0
20260505140112 55 49 2.0 10.0 0.00 0.01 0.01 82 1008.0
20260505124559 52 0 2.0 5.0 0.00 0.01 0.01 86 1007.5
20260505124043 52 61 0.0 5.0 0.00 0.01 0.01 86 1007.3
20260505123542 52 137 1.0 12.0 0.00 0.01 0.01 86 1007.2
20260505123053 52 0 1.0 12.0 0.00 0.01 0.01 86 1007.0
20260505122542 52 228 1.0 12.0 0.00 0.01 0.01 86 1007.0
20260505122042 52 263 1.0 8.0 0.00 0.01 0.01 85 1007.0
20260505121554 52 360 1.0 10.0 0.00 0.01 0.01 85 1007.0
20260505121043 52 97 2.0 10.0 0.00 0.01 0.01 85 1007.0
20260505120543 52 52 1.0 9.0 0.00 0.01 0.01 85 1006.9
20260505120058 52 40 1.0 10.0 0.00 0.01 0.01 85 1007.1
20260505115547 52 63 2.0 10.0 0.00 0.01 0.01 85 1007.0
20260505115043 53 329 2.0 10.0 0.00 0.01 0.01 85 1006.9
20260505114553 53 54 4.0 10.0 0.00 0.01 0.01 85 1006.8
20260505114042 53 67 1.0 13.0 0.00 0.01 0.01 84 1006.8
20260505113547 53 59 3.0 13.0 0.00 0.01 0.01 83 1006.6
20260505113058 54 22 5.0 13.0 0.00 0.01 0.01 82 1006.8
20260505112545 55 349 2.0 13.0 0.00 0.01 0.01 83 1006.9
20260505112042 55 67 4.0 14.0 0.00 0.01 0.01 82 1006.9
20260505111557 56 360 8.0 14.0 0.00 0.01 0.01 81 1006.6
20260505111044 57 333 6.0 18.0 0.00 0.01 0.01 82 1006.5
20260505110543 57 13 6.0 19.0 0.00 0.01 0.01 81 1006.6
20260505110110 58 355 11.0 19.0 0.00 0.01 0.01 80 1006.5
20260505102042 61 300 1.0 5.0 0.00 0.01 0.01 85 1006.2
20260505101551 61 302 0.0 9.0 0.00 0.01 0.01 86 1006.4
20260505101043 61 310 2.0 9.0 0.00 0.01 0.01 86 1006.8
20260505100543 60 311 1.0 7.0 0.00 0.01 0.01 87 1006.9
20260505100052 60 0 0.0 11.0 0.00 0.01 0.01 87 1006.5
20260505095542 60 348 5.0 11.0 0.00 0.01 0.01 86 1006.4
20260505095042 61 322 5.0 9.0 0.00 0.01 0.01 85 1006.3
20260505094554 61 287 1.0 4.0 0.00 0.01 0.01 85 1005.8
20260505094044 61 0 0.0 4.0 0.01 0.01 0.01 85 1005.5
20260505093542 61 269 1.0 7.0 0.01 0.01 0.01 85 1005.5
20260505093053 61 285 2.0 8.0 0.01 0.01 0.01 84 1005.4
20260505092544 61 270 2.0 9.0 0.01 0.01 0.01 84 1005.4
20260505092042 61 273 6.0 9.0 0.01 0.01 0.01 84 1005.2
20260505091604 61 270 2.0 6.0 0.01 0.01 0.01 84 1004.7
20260505091045 61 222 1.0 7.0 0.01 0.01 0.01 84 1004.2
20260505090543 61 188 2.0 9.0 0.01 0.01 0.01 84 1004.2
20260505090054 61 180 1.0 13.0 0.01 0.01 0.01 84 1004.4
20260505085543 61 182 1.0 13.0 0.01 0.01 0.01 84 1004.3
20260505085044 62 154 5.0 10.0 0.01 0.01 0.01 83 1003.9
20260505084553 62 159 3.0 10.0 0.00 0.00 0.00 81 1004.4
20260505084042 63 180 2.0 12.0 0.00 0.00 0.00 79 1005.6
20260505083542 63 263 3.0 13.0 0.00 0.00 0.00 78 1005.8
20260505083053 63 232 5.0 13.0 0.00 0.00 0.00 77 1005.9
20260505082542 63 252 3.0 7.0 0.00 0.00 0.00 76 1005.9
20260505082042 63 226 1.0 4.0 0.00 0.00 0.00 76 1006.0
20260505081553 63 239 1.0 6.0 0.00 0.00 0.00 76 1006.0
20260505081043 63 191 2.0 6.0 0.00 0.00 0.00 75 1005.7
20260505080545 63 213 1.0 4.0 0.00 0.00 0.00 75 1005.6
20260505080100 63 173 1.0 6.0 0.00 0.00 0.00 74 1005.5
20260505075547 63 208 2.0 8.0 0.00 0.00 0.00 74 1005.6
20260505075042 63 133 1.0 8.0 0.00 0.00 0.00 74 1005.7
20260505074549 63 222 1.0 4.0 0.00 0.00 0.00 74 1005.7
20260505074043 63 210 0.0 4.0 0.00 0.00 0.00 74 1005.6
20260505073543 63 0 0.0 4.0 0.00 0.00 0.00 74 1005.5
20260505073055 63 207 0.0 3.0 0.00 0.00 0.00 74 1005.6
20260505072543 63 204 0.0 5.0 0.00 0.00 0.00 74 1005.6
20260505072130 64 0 1.0 8.0 0.00 0.00 0.00 73 1005.5
20260505071554 64 193 1.0 8.0 0.00 0.00 0.00 74 1005.7
20260505071043 63 187 1.0 6.0 0.00 0.00 0.00 73 1005.6
20260505070543 63 178 2.0 5.0 0.00 0.00 0.00 74 1005.6
20260505070055 63 153 1.0 5.0 0.00 0.00 0.00 74 1005.6
20260505065543 63 191 2.0 7.0 0.00 0.00 0.00 74 1005.6
20260505065043 63 155 1.0 9.0 0.00 0.00 0.00 74 1005.6
20260505064554 63 159 1.0 9.0 0.00 0.00 0.00 74 1005.7
20260505064043 63 169 3.0 8.0 0.00 0.00 0.00 74 1005.8
20260505063542 63 207 3.0 7.0 0.00 0.00 0.00 74 1005.8